Weather History for KCCY - June, 2013

Change the Weather History Date:

Friday, June 28, 2013

  Actual Average (KMCW) Record (KMCW)
Temperature  
Mean Temperature 72 °F 71 °F  
Max Temperature 78 °F 83 °F 102 °F (1931)
Min Temperature 66 °F 60 °F 40 °F (1911)
Degree Days  
Heating Degree Days 0 0  
Month to date heating degree days 44  
Since 1 June heating degree days 44  
Since 1 July heating degree days 7679  
Cooling Degree Days 7 7  
Month to date cooling degree days 125  
Year to date cooling degree days 160  
Since 1 June cooling degree days 125  
Growing Degree Days 22 (Base 50)    
Moisture  
Dew Point 59 °F    
Average Humidity 64    
Maximum Humidity 83    
Minimum Humidity 47    
Precipitation  
Precipitation 0.00 in 0.16 in 1.84 in (1924)
Month to date precipitation 4.81  
Year to date precipitation 17.29  
Snow  
Snow 0.00 in 0.00 in - ()
Month to date snowfall 0.0  
Since 1 June snowfall 0.0  
Since 1 July snowfall 41.2  
Snow Depth -    
Sea Level Pressure  
Sea Level Pressure 29.80 in    
Wind  
Wind Speed 14 mph (NW)    
Max Wind Speed 30 mph    
Max Gust Speed 38 mph    
Visibility 10 miles    
Events      
T = Trace of Precipitation, MM = Missing Value Source: NWS Daily Summary

Daily Weather History Graph

Daily Weather History Graph

Search for Another Location

Airport or City:

Trip Planner

Search our weather history database for the weather conditions in past years. The results will help you decide how hot, cold, wet, or windy it might be!

Date:

Astronomy

Jun. 28, 2013 Rise Set
Actual Time 5:33 AM CDT 8:53 PM CDT
Civil Twilight 4:58 AM CDT 9:29 PM CDT
Nautical Twilight 4:12 AM CDT 10:15 PM CDT
Astronomical Twilight 3:15 AM CDT 11:11 PM CDT
Moon No Moon Rise 11:51 AM CDT (6/28)
Length of Visible Light 16h 31m
Length of Day
15h 20m
Waning Gibbous, 66% of the Moon is Illuminated
Jun 28
Waning Gibbous
Jun 29
Last Quarter
Jul 8
New
Jul 15
First Quarter
Jul 22
Full

Hourly Weather History & Observations

Time (CDT) Temp. Dew Point Humidity Pressure Visibility Wind Dir Wind Speed Gust Speed Precip Events Conditions
12:15 AM 68.0 °F 59.0 °F 73% 29.86 in 10.0 mi West 8.1 mph - N/A   Clear
12:35 AM 68.0 °F 57.2 °F 68% 29.85 in 10.0 mi WNW 8.1 mph - N/A   Partly Cloudy
12:55 AM 68.0 °F 59.0 °F 73% 29.85 in 10.0 mi West 6.9 mph - N/A   Partly Cloudy
1:15 AM 66.2 °F 59.0 °F 78% 29.85 in 10.0 mi West 5.8 mph - N/A   Partly Cloudy
1:35 AM 66.2 °F 59.0 °F 78% 29.85 in 10.0 mi West 9.2 mph - N/A   Partly Cloudy
1:55 AM 68.0 °F 57.2 °F 68% 29.84 in 10.0 mi West 8.1 mph - N/A   Partly Cloudy
2:15 AM 66.2 °F 59.0 °F 78% 29.85 in 10.0 mi West 9.2 mph - N/A   Partly Cloudy
2:35 AM 66.2 °F 59.0 °F 78% 29.84 in 10.0 mi WNW 8.1 mph - N/A   Clear
2:55 AM 66.2 °F 57.2 °F 73% 29.84 in 10.0 mi WNW 8.1 mph - N/A   Clear
3:15 AM 66.2 °F 57.2 °F 73% 29.84 in 10.0 mi WNW 9.2 mph - N/A   Clear
3:35 AM 68.0 °F 57.2 °F 68% 29.84 in 10.0 mi WNW 11.5 mph - N/A   Clear
3:55 AM 68.0 °F 57.2 °F 68% 29.83 in 10.0 mi WNW 10.4 mph - N/A   Clear
4:15 AM 68.0 °F 57.2 °F 68% 29.83 in 10.0 mi NW 10.4 mph - N/A   Clear
4:35 AM 66.2 °F 57.2 °F 73% 29.83 in 10.0 mi WNW 9.2 mph 15.0 mph N/A   Clear
4:55 AM 68.0 °F 57.2 °F 68% 29.83 in 10.0 mi WNW 12.7 mph - N/A   Clear
5:15 AM 66.2 °F 57.2 °F 73% 29.83 in 10.0 mi WNW 10.4 mph - N/A   Clear
5:35 AM 66.2 °F 57.2 °F 73% 29.83 in 10.0 mi NW 11.5 mph - N/A   Clear
5:55 AM 66.2 °F 57.2 °F 73% 29.83 in 10.0 mi NW 9.2 mph - N/A   Clear
6:15 AM 66.2 °F 57.2 °F 73% 29.84 in 10.0 mi NW 10.4 mph - N/A   Clear
6:35 AM 66.2 °F 57.2 °F 73% 29.83 in 10.0 mi NW 8.1 mph - N/A   Clear
6:55 AM 66.2 °F 57.2 °F 73% 29.83 in 10.0 mi WNW 9.2 mph - N/A   Clear
7:55 AM 69.8 °F 59.0 °F 68% 29.83 in 10.0 mi WNW 12.7 mph - N/A   Clear
8:15 AM 71.6 °F 59.0 °F 64% 29.83 in 10.0 mi WNW 11.5 mph 17.3 mph N/A   Clear
8:35 AM 71.6 °F 59.0 °F 64% 29.83 in 10.0 mi WNW 13.8 mph - N/A   Clear
8:55 AM 73.4 °F 59.0 °F 61% 29.83 in 10.0 mi WNW 18.4 mph - N/A   Clear
9:15 AM 73.4 °F 59.0 °F 61% 29.82 in 10.0 mi NW 19.6 mph 26.5 mph N/A   Clear
9:35 AM 73.4 °F 59.0 °F 61% 29.81 in 10.0 mi NW 19.6 mph 27.6 mph N/A   Clear
9:55 AM 75.2 °F 59.0 °F 57% 29.81 in 10.0 mi WNW 20.7 mph 26.5 mph N/A   Clear
10:15 AM 75.2 °F 59.0 °F 57% 29.81 in 10.0 mi NW 21.9 mph 28.8 mph N/A   Clear
10:35 AM 75.2 °F 59.0 °F 57% 29.81 in 10.0 mi NW 20.7 mph 31.1 mph N/A   Clear
10:55 AM 77.0 °F 59.0 °F 54% 29.80 in 10.0 mi NW 23.0 mph 32.2 mph N/A   Partly Cloudy
11:15 AM 77.0 °F 59.0 °F 54% 29.80 in 10.0 mi NW 23.0 mph 33.4 mph N/A   Partly Cloudy
11:35 AM 77.0 °F 57.2 °F 50% 29.80 in 10.0 mi NW 25.3 mph 33.4 mph N/A   Partly Cloudy
11:55 AM 77.0 °F 59.0 °F 54% 29.80 in 10.0 mi NW 21.9 mph 31.1 mph N/A   Partly Cloudy
12:15 PM 77.0 °F 59.0 °F 54% 29.80 in 10.0 mi WNW 23.0 mph 31.1 mph N/A   Scattered Clouds
12:35 PM 78.8 °F 57.2 °F 47% 29.79 in 10.0 mi NW 29.9 mph 38.0 mph N/A   Partly Cloudy
12:55 PM 78.8 °F 57.2 °F 47% 29.79 in 10.0 mi NW 25.3 mph 34.5 mph N/A   Scattered Clouds
1:15 PM 77.0 °F 57.2 °F 50% 29.79 in 10.0 mi NW 27.6 mph 35.7 mph N/A   Mostly Cloudy
1:35 PM 77.0 °F 57.2 °F 50% 29.79 in 10.0 mi NW 21.9 mph 32.2 mph N/A   Overcast
1:55 PM 77.0 °F 55.4 °F 47% 29.79 in 10.0 mi NNW 25.3 mph 31.1 mph N/A   Overcast
2:15 PM 77.0 °F 57.2 °F 50% 29.79 in 10.0 mi NNW 23.0 mph 28.8 mph N/A   Overcast
2:35 PM 75.2 °F 57.2 °F 53% 29.79 in 10.0 mi NNW 21.9 mph 28.8 mph N/A   Overcast
2:55 PM 75.2 °F 57.2 °F 53% 29.80 in 10.0 mi NNW 19.6 mph 28.8 mph N/A   Overcast
3:15 PM 75.2 °F 59.0 °F 57% 29.79 in 10.0 mi NNW 17.3 mph 24.2 mph N/A   Overcast
3:35 PM 75.2 °F 57.2 °F 53% 29.79 in 10.0 mi NNW 19.6 mph - N/A   Overcast
3:55 PM 75.2 °F 59.0 °F 57% 29.79 in 10.0 mi NNW 19.6 mph - N/A   Overcast
4:15 PM 77.0 °F 59.0 °F 54% 29.78 in 10.0 mi NNW 19.6 mph 27.6 mph N/A   Overcast
4:35 PM 75.2 °F 57.2 °F 53% 29.78 in 10.0 mi NW 21.9 mph 31.1 mph N/A   Overcast
4:55 PM 77.0 °F 57.2 °F 50% 29.78 in 10.0 mi NW 27.6 mph 34.5 mph N/A   Overcast
5:15 PM 75.2 °F 59.0 °F 57% 29.78 in 10.0 mi NW 24.2 mph 33.4 mph N/A   Mostly Cloudy
5:35 PM 77.0 °F 59.0 °F 54% 29.77 in 10.0 mi NNW 23.0 mph 31.1 mph N/A   Mostly Cloudy
5:55 PM 77.0 °F 59.0 °F 54% 29.77 in 10.0 mi NW 25.3 mph 33.4 mph N/A   Scattered Clouds
6:15 PM 77.0 °F 59.0 °F 54% 29.77 in 10.0 mi NW 23.0 mph 31.1 mph N/A   Mostly Cloudy
6:35 PM 75.2 °F 59.0 °F 57% 29.77 in 10.0 mi NW 20.7 mph 28.8 mph N/A   Scattered Clouds
6:55 PM 77.0 °F 59.0 °F 54% 29.76 in 10.0 mi NW 27.6 mph 35.7 mph N/A   Partly Cloudy
7:15 PM 75.2 °F 59.0 °F 57% 29.76 in 10.0 mi NW 26.5 mph 33.4 mph N/A   Partly Cloudy
7:35 PM 75.2 °F 60.8 °F 61% 29.77 in 10.0 mi NW 15.0 mph 23.0 mph N/A   Partly Cloudy
7:55 PM 75.2 °F 59.0 °F 57% 29.77 in 10.0 mi NW 20.7 mph 28.8 mph N/A   Scattered Clouds
8:15 PM 73.4 °F 59.0 °F 61% 29.77 in 10.0 mi NW 17.3 mph 25.3 mph N/A   Mostly Cloudy
8:35 PM 71.6 °F 60.8 °F 69% 29.78 in 7.0 mi North 13.8 mph 25.3 mph N/A   Overcast
8:55 PM 69.8 °F 60.8 °F 73% 29.78 in 10.0 mi North 12.7 mph - N/A   Overcast
9:15 PM 69.8 °F 60.8 °F 73% 29.78 in 10.0 mi North 11.5 mph - N/A   Overcast
9:35 PM 68.0 °F 60.8 °F 78% 29.78 in 10.0 mi North 10.4 mph - N/A   Overcast
9:55 PM 68.0 °F 62.6 °F 83% 29.78 in 10.0 mi NNW 5.8 mph - N/A   Scattered Clouds
10:15 PM 68.0 °F 62.6 °F 83% 29.78 in 10.0 mi NW 8.1 mph - N/A   Mostly Cloudy
10:35 PM 68.0 °F 60.8 °F 78% 29.78 in 10.0 mi North 10.4 mph - N/A   Scattered Clouds
10:55 PM 68.0 °F 60.8 °F 78% 29.77 in 10.0 mi North 13.8 mph 23.0 mph N/A   Scattered Clouds
11:15 PM 68.0 °F 59.0 °F 73% 29.77 in 10.0 mi NNW 15.0 mph 20.7 mph N/A   Partly Cloudy
11:35 PM 66.2 °F 59.0 °F 78% 29.77 in 10.0 mi NNW 12.7 mph 18.4 mph N/A   Clear
11:55 PM 66.2 °F 59.0 °F 78% 29.76 in 10.0 mi NNW 10.4 mph - N/A   Clear